STARLINK-32517

Last updated on Thu Nov 21 2024 00:02:07 GMT+0000 (Coordinated Universal Time)

1 61980U 24210X 24325.66668981 -.00989887 30124-3 -26473-2 0 9997 2 61980 43.0026 353.4608 0002039 274.1996 97.7952 15.93564403 2148
UTC large
Height (km)
Speed (km/s)
/
Latitude / Longitude
Inclination (degrees)
Orbital Period (minutes)
Azimuth
Elevation
Range (km)
Doppler Factor

Next 0 passes for location: London (51.5072 / 0.1276)

Sorry there are no passes over London.